Weather History for Peoria, IL

Change the Weather History Date:

Friday, November 2, 2012

  Actual Average Record
Temperature  
Mean Temperature 41 °F 48 °F  
Max Temperature 50 °F 58 °F 78 °F (1938)
Min Temperature 31 °F 39 °F 12 °F (1951)
Degree Days  
Heating Degree Days 24 17  
Month to date heating degree days 42 34  
Since 1 July heating degree days 559 480  
Cooling Degree Days 0 0  
Month to date cooling degree days 0 0  
Year to date cooling degree days 1374 1039  
Moisture  
Dew Point 28 °F    
Average Humidity 59    
Maximum Humidity 82    
Minimum Humidity 36    
Precipitation  
Precipitation 0.00 in 0.11 in 1.09 in (1936)
Month to date precipitation 0.00 0.21  
Year to date precipitation 24.28 31.15  
Snow  
Snow 0.00 in 0.00 in 0.60 in (1955)
Month to date snowfall 0.0 0.0  
Since 1 July snowfall 0.0 T  
Since 1 September snowfall 0.0 T  
Snow Depth 0.00 in    
Sea Level Pressure  
Sea Level Pressure 30.07 in    
Wind  
Wind Speed 6 mph (NE)    
Max Wind Speed 12 mph    
Max Gust Speed 15 mph    
Visibility 10 miles    
Events      
T = Trace of Precipitation, MM = Missing Value Source: NWS Daily Summary

Daily Weather History Graph

Daily Weather History Graph

Search for Another Location

Airport:

Trip Planner

Search our weather history database for the weather conditions in past years. The results will help you decide how hot, cold, wet, or windy it might be!

Date:

Astronomy

Nov. 02, 2012 Rise Set
Actual Time 7:30 AM CDT 5:53 PM CDT
Civil Twilight 7:02 AM CDT 6:21 PM CDT
Nautical Twilight 6:29 AM CDT 6:54 PM CDT
Astronomical Twilight 5:57 AM CDT 7:26 PM CDT
Moon 8:40 PM CDT (11/2) 10:51 AM CDT (11/2)
Length of Visible Light 11h 19m
Length of Day
10h 22m
Waning Gibbous, 87% of the Moon is Illuminated
Nov 2
Waning Gibbous
Nov 6
Last Quarter
Nov 13
New
Nov 20
First Quarter
Nov 28
Full

Hourly Weather History & Observations

Time (CDT) Temp. Windchill Dew Point Humidity Pressure Visibility Wind Dir Wind Speed Gust Speed Precip Events Conditions
12:54 AM 39.0 °F 35.7 °F 30.0 °F 70% 29.95 in 10.0 mi North 4.6 mph - N/A   Clear
1:54 AM 37.0 °F 32.4 °F 28.9 °F 73% 29.96 in 10.0 mi North 5.8 mph - N/A   Clear
2:54 AM 36.0 °F 33.3 °F 28.9 °F 76% 29.99 in 10.0 mi NNW 3.5 mph - N/A   Clear
3:54 AM 34.0 °F 31.0 °F 28.0 °F 79% 30.00 in 10.0 mi North 3.5 mph - N/A   Clear
4:54 AM 35.1 °F 31.0 °F 28.0 °F 76% 30.01 in 10.0 mi North 4.6 mph - N/A   Clear
5:54 AM 34.0 °F 29.8 °F 27.0 °F 75% 30.04 in 10.0 mi North 4.6 mph - N/A   Clear
6:54 AM 32.0 °F 28.7 °F 27.0 °F 82% 30.05 in 10.0 mi North 3.5 mph - N/A   Clear
7:54 AM 33.1 °F - 27.0 °F 78% 30.08 in 10.0 mi Calm Calm - N/A   Clear
8:54 AM 37.0 °F 32.4 °F 28.9 °F 73% 30.09 in 10.0 mi ENE 5.8 mph - N/A   Clear
9:54 AM 39.9 °F 34.5 °F 28.9 °F 65% 30.11 in 10.0 mi NE 8.1 mph - N/A   Clear
10:54 AM 43.0 °F 40.3 °F 28.9 °F 58% 30.12 in 10.0 mi ENE 4.6 mph - N/A   Clear
11:54 AM 46.0 °F 43.1 °F 27.0 °F 47% 30.12 in 10.0 mi ENE 5.8 mph - N/A   Clear
12:54 PM 48.0 °F - 26.1 °F 42% 30.11 in 10.0 mi ENE 4.6 mph - N/A   Clear
1:54 PM 48.9 °F - 27.0 °F 43% 30.09 in 10.0 mi ENE 6.9 mph - N/A   Clear
2:54 PM 50.0 °F - 25.0 °F 38% 30.09 in 10.0 mi ENE 5.8 mph - N/A   Clear
3:54 PM 48.9 °F - 27.0 °F 43% 30.08 in 10.0 mi East 8.1 mph - N/A   Clear
4:54 PM 46.9 °F - 27.0 °F 46% 30.08 in 10.0 mi ENE 4.6 mph - N/A   Clear
5:54 PM 46.0 °F 44.8 °F 26.1 °F 46% 30.09 in 10.0 mi NNE 3.5 mph - N/A   Clear
6:54 PM 43.0 °F 40.3 °F 28.0 °F 56% 30.10 in 10.0 mi ENE 4.6 mph - N/A   Clear
7:54 PM 44.1 °F 40.8 °F 27.0 °F 51% 30.11 in 10.0 mi ENE 5.8 mph - N/A   Clear
8:54 PM 43.0 °F 38.8 °F 28.0 °F 56% 30.12 in 10.0 mi ENE 6.9 mph - N/A   Clear
9:54 PM 43.0 °F 37.7 °F 27.0 °F 53% 30.12 in 10.0 mi ENE 9.2 mph - N/A   Clear
10:54 PM 43.0 °F 38.8 °F 27.0 °F 53% 30.12 in 10.0 mi East 6.9 mph - N/A   Clear
11:54 PM 39.9 °F 35.1 °F 27.0 °F 60% 30.13 in 10.0 mi East 6.9 mph - N/A   Clear